Location: Regona
(45.2000°N, 9.8167°E)
Time: 12:22:19
(UTC+00:00)

Cosmos 1709 Rocket - Pass Details

Date: 07 June 2020
Orbit: 949 x 1001 km, 82.9° (Epoch: 13 July)

Event Time Altitude Azimuth Distance (km) Brightness Sun altitude
Exits shadow 00:05:04 40° 185° (S) 1,367 4.3 -21.2°
Maximum altitude 00:07:27 89° 101° (E) 964 3.9 -21.2°
Drops below altitude 10° 00:13:40 10° 9° (N) 2,714 7.5 -20.9°
Sets 00:16:12 0° 9° (N) 3,673 8.6 -20.8°
